Location: Gadern
(49.5873°N, 8.8138°E)
Time: 00:38:39
(UTC+00:00)

Timation 1 Rocket - Pass Details

Date: 19 May 2025
Orbit: 895 x 909 km, 70.0° (Epoch: 15 June)

Event Time Altitude Azimuth Distance (km) Brightness Sun altitude
Exits shadow 21:47:15 26° 178° (S) 1,701 5.2 -17.4°
Maximum altitude 21:50:29 54° 113° (ESE) 1,085 4.5 -17.6°
Drops below altitude 10° 21:56:18 10° 37° (NE) 2,596 7.1 -17.9°
Sets 21:58:52 0° 34° (NNE) 3,543 8.0 -18.1°
